Location: Newark
(33.6439°N, 114.9881°W)
Time: 08:19:31
(UTC+00:00)

N. Korean satellite - Pass Details

Date: 21 March 2019
Orbit: 457 x 508 km, 97.2° (Epoch: 20 April)

Event Time Altitude Azimuth Distance (km) Brightness Sun altitude
Rises 12:58:52 0° 30° (NNE) 2,524 10.8 -9.9°
Reaches altitude 10° 13:01:23 10° 49° (NE) 1,651 10.2 -9.4°
Maximum altitude 13:03:56 19° 96° (E) 1,216 9.8 -8.8°
Drops below altitude 10° 13:06:31 10° 142° (SE) 1,664 9.7 -8.3°
Sets 13:09:03 0° 161° (SSE) 2,550 10.4 -7.8°
